Home   Weather   Iasi   Past weeks

Flag for Romania Past Weather in Iasi, Romania — Yesterday and Last 2 Weeks

Now
36 °F

Sunny.


Feels Like: 25 °F
Forecast: 43 / 59 °F
Wind: 20 mph from Southeast

Location: Iasi Airport

Current Time: Feb 28, 2017 at 9:40:58 am

Latest Report: Feb 28, 2017 at 9:00 am


Visibility: 10 mi

Pressure: 29.95 "Hg

Humidity: 81%

Dew Point: 30 °F

Location of IasiLocation

Past Weather in Iasi — Graph

°F

Iasi Temperature Yesterday

Maximum temperature yesterday: 57 °F (at 2:00 pm)
Minimum temperature yesterday: 36 °F (at 1:30 am)
Average temperature yesterday: 44 °F

High & Low Weather Summary for the Past Weeks

 TemperatureHumidityPressure
High57 °F (Feb 24, 12:00 pm)93% (Feb 17, 4:00 am)30.69 "Hg (Feb 17, 4:00 am)
Low14 °F (Feb 14, 5:30 am)27% (Feb 27, 2:00 pm)29.59 "Hg (Feb 23, 3:00 am)
Average35 °F71%30.11 "Hg
* Reported Feb 13 8:00 am — Feb 28 8:30 am, Iasi, Weather by CustomWeather, © 2017

Note: Actual official high and low records may vary slightly from our data, if they occured in-between our weather recording intervals... More about our weather records

Advertising

Iasi Weather History for the Previous 24 Hours

Scroll right to see more
 ConditionsComfort  
Time TempWeatherWind HumidityBarometerVisibility
8:30 am
Tue, Feb 28
36 °FSunny.17 mph87%29.95 "Hg10 mi
8:00 am36 °FSunny.16 mph87%29.95 "Hg10 mi
7:30 am36 °FSunny.14 mph87%29.95 "Hg10 mi
7:00 am36 °FSunny.13 mph87%29.92 "Hg10 mi
6:30 am37 °FClear.10 mph81%29.95 "Hg10 mi
6:00 am37 °FClear.10 mph81%29.95 "Hg10 mi
5:00 am39 °FClear.9 mph75%29.92 "Hg10 mi
4:30 am39 °FPassing clouds.8 mph75%29.95 "HgN/A
4:00 am41 °FPassing clouds.7 mph76%29.95 "HgN/A
3:30 am39 °FClear.10 mph75%29.95 "Hg10 mi
3:00 am39 °FClear.10 mph75%29.95 "Hg10 mi
2:30 am39 °FClear.13 mph75%29.95 "Hg10 mi
2:00 am39 °FClear.13 mph70%29.98 "Hg10 mi
1:30 am39 °FClear.13 mph70%29.98 "Hg10 mi
1:00 am39 °FClear.14 mph70%29.98 "Hg10 mi
12:30 am39 °FClear.13 mph65%29.98 "Hg10 mi
12:00 am39 °FClear.12 mph65%30.01 "Hg10 mi
11:30 pm
Mon, Feb 27
41 °FClear.13 mph61%30.01 "Hg10 mi
11:00 pm41 °FClear.9 mph57%30.01 "Hg10 mi
10:30 pm41 °FClear.9 mph57%30.01 "Hg10 mi
10:00 pm43 °FClear.7 mph53%30.01 "Hg10 mi
9:00 pm45 °FClear.6 mph53%30.04 "Hg10 mi
8:30 pm45 °FClear.7 mph53%30.04 "Hg10 mi
8:00 pm45 °FClear.7 mph53%30.04 "Hg10 mi
7:30 pm46 °FClear.7 mph53%30.04 "Hg10 mi
7:00 pm46 °FClear.7 mph53%30.04 "Hg10 mi
6:30 pm46 °FClear.9 mph57%30.04 "Hg10 mi
6:00 pm48 °FClear.10 mph54%30.01 "Hg10 mi
5:30 pm50 °FSunny.8 mph50%30.01 "Hg10 mi
5:00 pm54 °FSunny.9 mph44%30.01 "Hg10 mi
4:30 pm55 °FSunny.9 mph38%30.01 "Hg10 mi
4:00 pm55 °FSunny.9 mph33%30.01 "Hg10 mi
3:30 pm55 °FSunny.9 mph33%30.04 "Hg10 mi
3:00 pm57 °FPassing clouds.6 mph29%30.04 "HgN/A
2:30 pm57 °FSunny.5 mph27%30.04 "Hg10 mi
2:00 pm57 °FSunny.3 mph27%30.04 "Hg10 mi
1:30 pm54 °FPassing clouds.6 mph33%30.07 "HgN/A
1:00 pm54 °FPassing clouds.5 mph33%30.07 "HgN/A
12:30 pm54 °FSunny.2 mph33%30.07 "Hg10 mi
12:00 pm52 °FPassing clouds.5 mph44%30.09 "HgN/A
11:30 am50 °FSunny.5 mph50%30.09 "Hg10 mi
11:00 am50 °FPassing clouds.3 mph43%30.09 "HgN/A
10:30 am48 °FPassing clouds.5 mph46%30.09 "HgN/A
10:00 am46 °FPassing clouds.3 mph50%30.09 "HgN/A
9:30 am43 °FSunny.2 mph66%30.09 "Hg10 mi
9:00 am41 °FPassing clouds.3 mph70%30.09 "HgN/A
Weather by CustomWeather, © 2017

See weather overviewHow to use our weather pages